This demonstration page uses our WeatherBlox Daily Observations layout. Learn more.

39.92423, -83.80882

Hourly Observations for May 24, 2016

Temp ( °F °C ) Dew Point ( °F °C ) Humidity (%) Winds ( mph kmh ) Pressure ( in mb ) Visibility ( mi km ) Precip ( " mm )
12:56 am 00:56 Clear 56 13.3 51 10.5 83 83 Calm 30.04 1017 10 16.0934 0 0
1:56 am 01:56 Clear 56 13.3 50 10 81 81 SSW 3 6 30.03 1017 10 16.0934 0 0
2:56 am 02:56 Clear 53 11.6 51 10.5 93 93 Calm 30.03 1017 10 16.0934 0 0
3:56 am 03:56 Clear 52 11.1 51 10.5 96 96 Calm 30.04 1017 10 16.0934 0 0
4:56 am 04:56 Clear 51 10.5 50 10 97 97 Calm 30.05 1018 10 16.0934 0 0
5:56 am 05:56 Clear 51 10.5 50 10 97 97 SE 3 6 30.06 1018 10 16.0934 0 0
6:56 am 06:56 Sunny 51 10.5 50 10 97 97 Calm 30.09 1019 10 16.0934 0 0
7:56 am 07:56 Sunny 60 15.5 54 12.2 81 81 SSW 3 6 30.1 1019 10 16.0934 0 0
8:56 am 08:56 Sunny 66 18.8 54 12.2 66 66 SW 8 13 30.11 1020 10 16.0934 0 0
9:56 am 09:56 Sunny 70 21.1 55 12.7 59 59 SW 8 13 30.12 1020 7 11.26538 0 0
10:56 am 10:56 Sunny 74 23.3 55 12.7 51 51 SW 10 17 30.12 1020 10 16.0934 0 0
11:56 am 11:56 Sunny 76 24.4 52 11.1 43 43 SSW 13 20 30.12 1020 10 16.0934 0 0
12:56 pm 12:56 Sunny 77 25 51 10.5 40 40 SW 9 15 30.11 1020 10 16.0934 0 0
1:56 pm 13:56 Sunny 79 26.1 50 10 36 36 SSW 12 19 30.1 1019 10 16.0934 0 0
2:56 pm 14:56 Sunny 80 26.6 51 10.5 36 36 SW 9 15 30.09 1019 10 16.0934 0 0
3:56 pm 15:56 Sunny 81 27.2 49 9.4 33 33 SSW 9 15 30.08 1019 10 16.0934 0 0
4:56 pm 16:56 Sunny 82 27.7 51 10.5 34 34 W 9 15 30.07 1018 10 16.0934 0 0
5:56 pm 17:56 Sunny 82 27.7 49 9.4 32 32 SSW 8 13 30.05 1018 10 16.0934 0 0
6:56 pm 18:56 Sunny 81 27.2 48 8.8 31 31 SW 7 11 30.06 1018 10 16.0934 0 0
7:56 pm 19:56 Sunny 79 26.1 47 8.3 32 32 SW 6 9 30.07 1018 10 16.0934 0 0
8:56 pm 20:56 Clear 73 22.7 46 7.7 38 38 S 3 6 30.07 1018 10 16.0934 0 0
9:56 pm 21:56 Clear 69 20.5 49 9.4 49 49 S 5 7 30.09 1019 10 16.0934 0 0
10:56 pm 22:56 Clear 69 20.5 49 9.4 49 49 S 5 7 30.09 1019 10 16.0934 0 0
11:56 pm 23:56 Clear 68 20 47 8.3 47 47 S 7 11 30.09 1019 10 16.0934 0 0

Powered by AerisWeather